Regional Weather Roundup
Issued by NWS

Home | Current Version | Previous Version | Text Only | Print | Product List | Glossary On
Versions: 1 2 3 4 5 6 7 8 9 10 11 12 13 14 15 16 17 18 19 20 21 22 23 24 25 26 27 28 29 30 31 32 33 34 35 36 37 38 39 40 41 42 43 44 45 46 47 48 49 50
000
ASUS44 KOUN 251910
RWROK

WEATHER ROUNDUP FOR OKLAHOMA
NATIONAL WEATHER SERVICE NORMAN OK
200 PM CDT THU MAY 25 2017

NOTE: "FAIR" INDICATES FEW OR NO CLOUDS BELOW 12,000 FEET WITH NO
      SIGNIFICANT WEATHER AND/OR OBSTRUCTIONS TO VISIBILITY.

OKZ001>007-009>012-014-015-017-252000-
NORTHWEST OKLAHOMA AND THE PANHANDLE

CITY           SKY/WX    TMP DP  RH WIND       PRES   REMARKS
GAGE           SUNNY     85  56  37 S16       29.52F
GUYMON         MOSUNNY   93  47  20 W10       29.51F
ENID/WOODRING  PTSUNNY   84  55  37 S21G26    29.53F
$$

OKZ016-021>023-033>039-044-045-252000-
SOUTHWEST OKLAHOMA

CITY           SKY/WX    TMP DP  RH WIND       PRES   REMARKS
LAWTON/REGL    CLOUDY    87  56  34 S14G23    29.56F
LAWTON/FT SILL MOSUNNY   86  63  45 S17G26    29.55F
FREDERICK      SUNNY     89  54  30 S18       29.53F
CLINTON        SUNNY     85  52  32 S21       29.56F
HOBART         SUNNY     87  52  29 S22G29    29.56F
ALTUS AFB      MOSUNNY   87  51  29 S15G23    29.55F
$$

OKZ018>020-024>031-252000-
CENTRAL OKLAHOMA

CITY           SKY/WX    TMP DP  RH WIND       PRES   REMARKS
OKLAHOMA CITY  MOSUNNY   82  57  42 S16G26    29.57F
OKC/WILEY POST SUNNY     84  57  39 S22G29    29.56F
OKC/TINKER AFB SUNNY     81  57  44 S17G24    29.58F
STILLWATER     SUNNY     82  55  39 S17G26    29.57F
GUTHRIE        SUNNY     83  58  42 S14       29.56F
$$

OKZ008-013-054>072-252000-
NORTHEAST OKLAHOMA

CITY           SKY/WX    TMP DP  RH WIND       PRES   REMARKS
TULSA          MOSUNNY   80  55  42 S20G26    29.62F
TULSA/JONES    SUNNY     79  53  40 S14G24    29.63F
PONCA CITY     SUNNY     80  54  40 S16G28    29.55F
BARTLESVILLE   SUNNY     79  55  43 SE15G24   29.62F
MUSKOGEE       SUNNY     79  56  45 SE14G21   29.67F
$$

OKZ032-040>043-046>053-073>077-252000-
SOUTH CENTRAL/SOUTHEAST OKLAHOMA

CITY           SKY/WX    TMP DP  RH WIND       PRES   REMARKS
ARDMORE/DWNTWN SUNNY     84  52  32 S13G22    29.61F
MCALESTER      SUNNY     82  58  43 S12G23    29.66F
$$




USA.gov is the U.S. government's official web portal to all federal, state and local government web resources and services.